Orbital Elements at Epoch 2459000.5 (2020-May-31.0) TDB
Reference: JPL 22 (heliocentric ecliptic J2000)
Element | Value | Uncertainty (1-sigma) | Units |
e | .1884836669476464 | 4.0669e-08 | |
a | 2.278845315740805 | 8.9736e-09 | au |
q | 1.849320194223511 | 9.3041e-08 | au |
i | 6.366792407299049 | 4.1803e-06 | deg |
node | 84.86649353850065 | 4.7646e-05 | deg |
peri | 305.9668470528022 | 4.9644e-05 | deg |
M | 100.9366315552637 | 1.4305e-05 | deg |
tp | 2458648.196462480643 (2019-Jun-13.69646248) | 4.9112e-05 | TDB |
period | 1256.52373724725 3.44 | 7.4219e-06 2.032e-08 | d yr |
n | .286504734712514 | 1.6923e-09 | deg/d |
Q | 2.708370437258099 | 1.0665e-08 | au |
|
| | Orbit Determination Parameters
Additional Information
|